Flag for Czech Republic Weather past 2 weeks in Tábor, Czech Republic

Now
38 °F

Chilly.


Feels Like: 35 °F
Forecast: 35 / 53 °F
Wind: 3 mph from West

Location: Kocelovice

Current Time: Mar 28, 2015 at 7:20:19 AM

Latest Report: Mar 28, 2015 at 6:00 AM


Visibility: 9 mi

Pressure: 30.21 "Hg

Humidity: 78%

Dew point: 32 °F

Location of TáborLocation

Historic Weather in Tábor — Graph

°F

Tábor temperature yesterday

Maximum temperature yesterday: 46 °F (at 4:00 PM)
Minimum temperature yesterday: 37 °F (at 2:00 AM)
Average temperature yesterday: 40 °F

Past Weeks' High & Low Weather Summary

 TemperatureHumidityPressure
High58 °F (Mar 25, 1:00 PM)99% (Mar 15, 3:00 AM)30.39 "Hg (Mar 15, 3:00 AM)
Low26 °F (Mar 20, 7:00 AM)22% (Mar 20, 3:00 PM)29.62 "Hg (Mar 25, 5:00 PM)
Average40 °F73%30.13 "Hg
* Reported Mar 13 6:00 AM — Mar 28 6:00 AM, Tábor, Weather by CustomWeather, © 2015

Note: Actual official high and low records may vary slightly from our data, if they occured in-between our weather recording intervals... More about our weather records

Advertising

Tábor weather history for previous 24 hours

 ConditionsComfort  
Time TempWeatherWind HumidityBarometerVisibility
6:00 AM
Sat, Mar 28
38 °FChilly.3 mph78%30.21 "Hg9 mi
5:00 AM38 °FChilly.5 mph77%30.20 "Hg10 mi
4:00 AM39 °FChilly.5 mph75%30.19 "Hg11 mi
3:00 AM39 °FChilly.5 mph74%30.19 "Hg12 mi
2:00 AM39 °FChilly.5 mph73%30.19 "Hg12 mi
1:00 AM39 °FChilly.5 mph75%30.19 "Hg12 mi
12:00 AM39 °FChilly.5 mph75%30.19 "Hg12 mi
11:00 PM
Fri, Mar 27
40 °FChilly.6 mph74%30.18 "Hg12 mi
10:00 PM40 °FChilly.6 mph73%30.17 "Hg12 mi
9:00 PM38 °FPassing clouds.8 mph75%30.15 "Hg17 mi
8:00 PM39 °FPassing clouds.6 mph76%30.13 "Hg17 mi
7:00 PM40 °FPassing clouds.7 mph73%30.11 "Hg12 mi
6:00 PM42 °FOvercast.8 mph65%30.07 "Hg12 mi
5:00 PM44 °FOvercast.8 mph54%30.03 "Hg16 mi
4:00 PM46 °FOvercast.8 mph56%30.01 "Hg16 mi
3:00 PM43 °FSprinkles. Overcast.7 mph73%30.01 "Hg14 mi
2:00 PM42 °FSprinkles. Overcast.6 mph77%30.01 "Hg12 mi
1:00 PM45 °FOvercast.8 mph67%29.99 "Hg14 mi
12:00 PM44 °FPartly sunny.7 mph65%29.99 "Hg14 mi
11:00 AM42 °FOvercast.6 mph83%30.00 "Hg11 mi
10:00 AM39 °FRain. Low clouds.6 mph88%29.99 "Hg7 mi
9:00 AM39 °FDrizzle. Low clouds.6 mph88%29.98 "Hg7 mi
8:00 AM38 °FDrizzle. Low clouds.6 mph89%29.96 "Hg6 mi
7:00 AM38 °FOvercast.6 mph88%29.93 "Hg7 mi
Weather by CustomWeather, © 2015

See weather overviewHow to use our weather pages